DELTA 1 DEB, 29189

Orbit data source: Space-Track

DELTA 1 DEB, 29189 is space debris in LEO originally from a launch on Thu, 11 Jan 1968 UTC launched from the Air Force Western Test Range (AFWTR). Debris objects in space refer to the collection of defunct objects orbiting the Earth. Examples of debris include non-operational satellites, rocket bodies, and fragments generated from explosions, collisions, or faulty payload assembly.

Loading next visibility...
DELTA 1 DEB details
Identifier
29189, 1968-002N
Orbit
LEO
Last TLE update2 weeks ago
Origin
Flag of USGSFC (US)
ManufacturerUnknown
MissionSpacecraft
Bus & MotorUnknown
MassUnknown
Launch date (UTC)
1968-01-11 (57 years ago)
Launch vehicleUnknown
Launch site
Air Force Western Test Range (AFWTR)
Object type
Payload
Rocket body
Debris
Shape & HBRUnknown
Radar Cross SectionSmall (<0.1 m²)

Expand to show TLE details & history

TLE from 2 weeks ago
0 DELTA 1 DEB
1 29189U 68002N   24342.53285740  .00001387  00000-0  34470-2 0  9993
2 29189 105.8369  87.7866 0240542 108.4429 268.1980 13.13910012941560
Epoch: 2024-12-07T12:47Z
Definitive object data (Epoch: 2024-12-07T12:47:18.879Z)
Latitude13.32504°
Longitude175.34139°
Altitude1,219.92 km
Speed7.241 km/s
True Right ascension05h 35m 48s
True Declination13° 15' 10"
Sunlit
Object was in full shadow at TLE epoch
Visualization TLE readout
Latitude-2.72668°
Longitude19.10135°
Altitude1,232.176 km
Speed7.228 km/s
Apparent Right ascension20h 39m 09s
Apparent Declination-21° 53' 51"
Sunlit
Object is in daylight
Visualization observer readout
Local Sidereal Time11:01:52
Azimuth69.944° E
Elevation-54.823°
Doppler factor1
Orbital elements
Apogee altitude1,388.246 km
Perigee altitude1,023.394 km
Semi-major axis7,583.957 km
Eccentricity0.0240542
Inclination105.8369°
RAAN87.7866°
Arg. of periapsis108.4429°
True anomaly265.44662°
Mean anomaly268.198°
Eccentric anomaly266.82192°
Mean motion3.28624 °/min
BSTAR0.003447
Orbital period109.55 mins
Loading maneuver chart data...
Loading historical data...
Loading historical data...
Loading historical data...
Loading historical data...
Loading historical data...
Loading historical data...
Loading historical data...

DELTA 1 DEB Visibility forecast

Observer location: undefined°, undefined

Span
Click to sort rows by Start time (UTC) header in descending order
Start Az.
Max El. time (UTC)
Max El. Az.
Max El.
End time (UTC)
End Az.
11 mins2024-12-21 20:50:09.191Z28.131° NE2024-12-21 20:55:09.191Z108.678° ESE43.989°2024-12-21 21:01:09.191Z196.618° SSW
7 mins2024-12-21 22:39:09.191Z340.076° N2024-12-21 22:42:09.191Z304.696° NW20.087°2024-12-21 22:46:09.191Z265.112° W
6 mins2024-12-22 05:35:09.191Z79.852° E2024-12-22 05:38:09.191Z46.901° ENE17.889°2024-12-22 05:41:09.191Z14.968° NNE
11 mins2024-12-22 07:19:09.191Z159.261° S2024-12-22 07:24:09.191Z198.949° SSW44.553°2024-12-22 07:30:09.191Z335.39° NNW
|